Flag for Poland Weather past 2 weeks in Grudziądz, Poland

Now
53 °F

Clear.


Feels Like: 53 °F
Forecast: 53 / 69 °F
Wind: 2 mph from Southwest

Location: Torun

Current Time: Aug 21, 2014 at 1:35:38 AM

Latest Report: Aug 21, 2014 at 12:00 AM


Visibility: 25 mi

Pressure: 29.99 "Hg

Humidity: 75%

Dew point: 45 °F

Location of GrudziądzLocation

Historic Weather in Grudziądz — Graph

°F

Grudziądz temperature yesterday

Maximum temperature yesterday: 65 °F (at 5:00 PM)
Minimum temperature yesterday: 51 °F (at 11:00 PM)
Average temperature yesterday: 59 °F

Past Weeks' High & Low Weather Summary

 TemperatureHumidityPressure
High87 °F (Aug 9, 4:00 PM)99% (Aug 16, 1:00 AM)30.03 "Hg (Aug 16, 1:00 AM)
Low51 °F (Aug 20, 11:00 PM)28% (Aug 9, 4:00 PM)29.56 "Hg (Aug 14, 4:00 AM)
Average66 °F69%29.86 "Hg
* Reported Midnight between Aug 5 and Aug 6 — Midnight between Aug 20 and Aug 21, Grudziądz, Weather by CustomWeather, © 2014

Note: Actual official high and low records may vary slightly from our data, if they occured in-between our weather recording intervals... More about our weather records

Advertising

Grudziądz weather history for previous 24 hours

 ConditionsComfort  
Time TempWeatherWind HumidityBarometerVisibility
12:00 AM
Aug 21
53 °FClear.2 mph75%29.99 "Hg25 mi
11:00 PM
Aug 20
51 °FClear.1 mph80%29.98 "Hg31 mi
10:00 PM53 °FClear.1 mph75%29.98 "Hg31 mi
9:00 PM55 °FPassing clouds.1 mph69%29.97 "Hg31 mi
8:00 PM59 °FPassing clouds.1 mph56%29.96 "Hg31 mi
7:00 PM63 °FScattered clouds.2 mph47%29.95 "Hg31 mi
6:00 PM64 °FPartly sunny.3 mph46%29.95 "Hg31 mi
5:00 PM65 °FPartly sunny.3 mph42%29.94 "Hg25 mi
4:00 PM65 °FPartly sunny.5 mph44%29.93 "Hg28 mi
3:00 PM64 °FPartly sunny.3 mph45%29.93 "Hg28 mi
2:00 PM64 °FScattered clouds.3 mph46%29.93 "Hg28 mi
1:00 PM63 °FScattered clouds.3 mph48%29.92 "Hg25 mi
12:00 PM62 °FPartly sunny.3 mph54%29.92 "Hg25 mi
11:00 AM61 °FPartly sunny.5 mph57%29.91 "Hg25 mi
10:00 AM60 °FPartly sunny.3 mph61%29.90 "Hg22 mi
9:00 AM59 °FScattered clouds.5 mph67%29.89 "Hg25 mi
8:00 AM56 °FScattered clouds.3 mph72%29.88 "Hg31 mi
7:00 AM54 °FScattered clouds.2 mph77%29.86 "Hg28 mi
6:00 AM55 °FPartly sunny.2 mph74%29.86 "Hg31 mi
5:00 AM56 °FPassing clouds.3 mph72%29.84 "Hg31 mi
4:00 AM56 °FPassing clouds.1 mph73%29.83 "Hg31 mi
3:00 AM58 °FPassing clouds.3 mph80%29.82 "Hg22 mi
2:00 AM58 °FPassing clouds.3 mph77%29.81 "Hg28 mi
1:00 AM58 °FPassing clouds.3 mph71%29.81 "Hg31 mi
Weather by CustomWeather, © 2014

See weather overviewHow to use our weather pages